QPF
0.01 0.01 0.01 0.00 0.00 0.00 0.01 0.01 0.01 0.01 0.01 0.01 0.01 0.02 0.02 0.02 0.02 0.01 0.01 0.03 0.03 0.04 0.04 0.05 0.05 0.04 0.04 0.03 0.05 0.03 0.02 0.02 0.02 0.01 0.01 0.01 0.01 0.02 0.02 0.02 0.01 0.01 0.01
0.01 0.01 0.01 0.01 0.00 0.00 0.01 0.01 0.01 0.01 0.02 0.02 0.02 0.02 0.01 0.01 0.02 0.01 0.01 0.02 0.03 0.04 0.04 0.05 0.07 0.08 0.07 0.05 0.04 0.04 0.04 0.03 0.02 0.02 0.02 0.02 0.01 0.02 0.03 0.03 0.03 0.02 0.01
0.01 0.01 0.01 0.01 0.01 0.01 0.01 0.02 0.02 0.03 0.03 0.02 0.03 0.03 0.02 0.01 0.01 0.01 0.01 0.02 0.02 0.03 0.04 0.05 0.06 0.08 0.07 0.06 0.04 0.05 0.05 0.04 0.03 0.02 0.02 0.02 0.02 0.01 0.01 0.02 0.03 0.03 0.02
0.01 0.01 0.01 0.01 0.01 0.01 0.02 0.03 0.05 0.05 0.04 0.04 0.03 0.04 0.02 0.01 0.01 0.01 0.01 0.01 0.01 0.02 0.03 0.05 0.06 0.06 0.07 0.07 0.05 0.05 0.06 0.05 0.04 0.03 0.02 0.02 0.02 0.01 0.01 0.01 0.02 0.03 0.02
0.01 0.01 0.01 0.01 0.01 0.01 0.03 0.04 0.04 0.04 0.04 0.04 0.04 0.05 0.03 0.02 0.01 0.01 0.01 0.01 0.01 0.02 0.02 0.03 0.04 0.04 0.05 0.06 0.06 0.06 0.07 0.07 0.05 0.03 0.03 0.02 0.02 0.01 0.01 0.01 0.01 0.01 0.01
0.01 0.01 0.00 0.01 0.01 0.01 0.02 0.03 0.03 0.03 0.03 0.02 0.03 0.04 0.03 0.02 0.01 0.01 0.01 0.01 0.02 0.01 0.01 0.01 0.02 0.02 0.04 0.05 0.05 0.06 0.06 0.07 0.06 0.04 0.04 0.04 0.03 0.02 0.02 0.01 0.01 0.01 0.01
0.03 0.02 0.01 0.00 0.01 0.01 0.02 0.03 0.02 0.02 0.02 0.02 0.02 0.02 0.02 0.02 0.02 0.01 0.01 0.01 0.02 0.02 0.01 0.01 0.01 0.01 0.02 0.04 0.04 0.05 0.05 0.06 0.07 0.06 0.05 0.05 0.04 0.03 0.02 0.02 0.02 0.02 0.02
0.03 0.02 0.01 0.01 0.01 0.01 0.01 0.02 0.02 0.01 0.01 0.01 0.02 0.01 0.01 0.01 0.01 0.01 0.01 0.01 0.02 0.03 0.02 0.01 0.01 0.01 0.01 0.01 0.01 0.03 0.04 0.06 0.06 0.06 0.05 0.04 0.04 0.03 0.02 0.02 0.01 0.02 0.02
0.04 0.02 0.01 0.01 0.01 0.01 0.01 0.01 0.01 0.02 0.01 0.01 0.01 0.00 0.00 0.00 0.00 0.00 0.01 0.01 0.02 0.02 0.01 0.01 0.01 0.01 0.01 0.02 0.02 0.02 0.03 0.04 0.05 0.07 0.06 0.04 0.04 0.03 0.03 0.03 0.02 0.02 0.01
0.04 0.03 0.02 0.01 0.01 0.01 0.01 0.01 0.01 0.01 0.01 0.01 0.01 0.00 0.00 0.00 0.00 0.00 0.00 0.01 0.01 0.01 0.01 0.01 0.00 0.01 0.01 0.02 0.02 0.02 0.02 0.03 0.04 0.05 0.06 0.05 0.03 0.03 0.03 0.03 0.03 0.03 0.02
0.05 0.04 0.03 0.02 0.02 0.02 0.01 0.01 0.01 0.01 0.01 0.01 0.01 0.00 0.00 0.00 0.00 0.00 0.00 0.00 0.00 0.00 0.00 0.00 0.00 0.00 0.01 0.01 0.01 0.01 0.01 0.01 0.02 0.02 0.03 0.03 0.03 0.03 0.02 0.02 0.03 0.03 0.03
0.05 0.03 0.03 0.02 0.02 0.02 0.03 0.02 0.02 0.02 0.01 0.01 0.01 0.00 0.00 0.00 0.00 0.00 0.00 0.00 0.00 0.00 0.00 0.00 0.00 0.00 0.00 0.00 0.00 0.01 0.01 0.01 0.01 0.01 0.01 0.01 0.02 0.02 0.02 0.02 0.02 0.02 0.03
0.03 0.01 0.02 0.03 0.04 0.04 0.03 0.03 0.02 0.02 0.02 0.02 0.01 0.01 0.00 0.00 0.00 0.00 0.00 0.00 0.00 0.00 0.00 0.00 0.00 0.00 0.00 0.00 0.00 0.00 0.00 0.00 0.01 0.00 0.00 0.00 0.00 0.01 0.01 0.01 0.01 0.02 0.02
0.04 0.04 0.03 0.04 0.05 0.04 0.04 0.04 0.03 0.03 0.02 0.02 0.01 0.01 0.01 0.00 0.00 0.00 0.00 0.00 0.00 0.00 0.00 0.00 0.00 0.00 0.00 0.00 0.00 0.00 0.00 0.00 0.00 0.00 0.00 0.00 0.00 0.00 0.00 0.01 0.01 0.01 0.01
0.05 0.05 0.05 0.05 0.05 0.04 0.03 0.03 0.03 0.03 0.03 0.02 0.02 0.02 0.01 0.01 0.01 0.01 0.00 0.00 0.00 0.00 0.00 0.00 0.00 0.00 0.00 0.00 0.00 0.00 0.00 0.00 0.00 0.00 0.00 0.00 0.00 0.00 0.00 0.00 0.00 0.00 0.00
0.08 0.06 0.06 0.06 0.06 0.05 0.05 0.04 0.03 0.03 0.03 0.03 0.03 0.02 0.02 0.01 0.01 0.01 0.01 0.01 0.00 0.00 0.00 0.00 0.00 0.00 0.00 0.00 0.00 0.00 0.00 0.00 0.00 0.00 0.00 0.00 0.00 0.00 0.00 0.00 0.00 0.00 0.00
0.12 0.09 0.06 0.07 0.08 0.07 0.07 0.05 0.04 0.04 0.04 0.03 0.03 0.02 0.01 0.02 0.01 0.02 0.02 0.01 0.01 0.01 0.00 0.00 0.00 0.00 0.00 0.00 0.00 0.00 0.00 0.00 0.00 0.00 0.00 0.00 0.00 0.00 0.00 0.00 0.00 0.00 0.00
0.14 0.13 0.11 0.10 0.10 0.08 0.07 0.06 0.05 0.06 0.04 0.04 0.04 0.03 0.02 0.03 0.02 0.02 0.02 0.01 0.01 0.01 0.01 0.00 0.00 0.00 0.00 0.00 0.00 0.00 0.00 0.00 0.00 0.00 0.00 0.00 0.00 0.00 0.00 0.00 0.00 0.00 0.00
0.14 0.15 0.13 0.10 0.09 0.07 0.07 0.07 0.07 0.06 0.05 0.06 0.07 0.07 0.05 0.04 0.02 0.01 0.01 0.01 0.01 0.01 0.01 0.01 0.01 0.01 0.01 0.01 0.00 0.00 0.00 0.00 0.00 0.00 0.00 0.00 0.01 0.01 0.01 0.01 0.00 0.00 0.00
0.13 0.14 0.14 0.12 0.09 0.09 0.10 0.10 0.08 0.06 0.06 0.05 0.05 0.05 0.04 0.04 0.03 0.02 0.01 0.01 0.01 0.01 0.01 0.01 0.01 0.01 0.01 0.00 0.00 0.00 0.00 0.00 0.00 0.00 0.00 0.00 0.00 0.01 0.00 0.00 0.00 0.00 0.00
0.15 0.15 0.14 0.13 0.12 0.11 0.12 0.13 0.10 0.07 0.06 0.05 0.05 0.04 0.04 0.04 0.03 0.03 0.02 0.03 0.03 0.03 0.02 0.01 0.01 0.01 0.00 0.00 0.00 0.00 0.00 0.00 0.00 0.00 0.00 0.00 0.00 0.00 0.00 0.01 0.00 0.00 0.00
0.12 0.15 0.15 0.13 0.12 0.10 0.11 0.12 0.11 0.10 0.09 0.07 0.06 0.05 0.05 0.05 0.05 0.05 0.05 0.05 0.04 0.04 0.03 0.02 0.01 0.01 0.01 0.00 0.00 0.00 0.00 0.00 0.00 0.00 0.00 0.00 0.00 0.00 0.00 0.00 0.01 0.01 0.01
0.13 0.15 0.18 0.16 0.15 0.14 0.13 0.13 0.13 0.12 0.11 0.09 0.09 0.07 0.06 0.06 0.06 0.05 0.04 0.04 0.04 0.04 0.04 0.03 0.02 0.02 0.01 0.01 0.01 0.01 0.01 0.01 0.00 0.00 0.00 0.00 0.00 0.00 0.00 0.00 0.01 0.01 0.01
0.14 0.16 0.17 0.14 0.13 0.13 0.12 0.10 0.10 0.10 0.10 0.10 0.09 0.08 0.07 0.06 0.05 0.04 0.03 0.02 0.02 0.02 0.03 0.03 0.02 0.02 0.02 0.02 0.01 0.01 0.01 0.00 0.00 0.00 0.01 0.01 0.00 0.00 0.00 0.01 0.01 0.01 0.01
0.13 0.14 0.15 0.14 0.10 0.09 0.09 0.08 0.08 0.07 0.06 0.06 0.07 0.07 0.06 0.05 0.05 0.04 0.03 0.02 0.02 0.02 0.02 0.02 0.02 0.01 0.01 0.01 0.01 0.01 0.01 0.01 0.01 0.00 0.01 0.01 0.01 0.01 0.01 0.00 0.01 0.01 0.01
0.12 0.15 0.14 0.12 0.10 0.10 0.10 0.10 0.09 0.08 0.07 0.06 0.07 0.07 0.05 0.05 0.05 0.05 0.04 0.03 0.02 0.02 0.01 0.01 0.01 0.01 0.01 0.01 0.01 0.01 0.01 0.02 0.01 0.01 0.01 0.01 0.01 0.01 0.01 0.00 0.00 0.01 0.01
MSLP
1017.41 1017.62 1017.76 1017.85 1017.92 1018.00 1018.10 1018.23 1018.40 1018.57 1018.74 1018.89 1019.02 1019.12 1019.22 1019.32 1019.44 1019.59 1019.76 1019.94 1020.14 1020.33 1020.51 1020.68 1020.85 1021.01 1021.17 1021.34 1021.52 1021.70 1021.89 1022.07 1022.24 1022.40 1022.57 1022.75 1022.94 1023.14 1023.34 1023.54 1023.71 1023.85 1023.96
1017.39 1017.58 1017.73 1017.84 1017.94 1018.06 1018.21 1018.39 1018.60 1018.82 1019.04 1019.23 1019.39 1019.51 1019.61 1019.69 1019.77 1019.86 1019.97 1020.09 1020.24 1020.41 1020.58 1020.76 1020.94 1021.12 1021.30 1021.48 1021.65 1021.81 1021.96 1022.12 1022.26 1022.42 1022.60 1022.79 1022.99 1023.22 1023.44 1023.64 1023.82 1023.96 1024.05
1017.31 1017.50 1017.68 1017.84 1018.00 1018.18 1018.39 1018.63 1018.89 1019.16 1019.41 1019.64 1019.83 1019.97 1020.07 1020.13 1020.17 1020.20 1020.24 1020.31 1020.39 1020.51 1020.66 1020.83 1021.01 1021.21 1021.40 1021.58 1021.75 1021.90 1022.03 1022.16 1022.29 1022.44 1022.61 1022.80 1023.02 1023.25 1023.48 1023.69 1023.86 1023.99 1024.08
1017.18 1017.41 1017.64 1017.87 1018.12 1018.37 1018.65 1018.95 1019.25 1019.56 1019.84 1020.10 1020.31 1020.47 1020.57 1020.61 1020.62 1020.60 1020.58 1020.57 1020.59 1020.65 1020.75 1020.90 1021.07 1021.27 1021.47 1021.65 1021.82 1021.96 1022.08 1022.20 1022.31 1022.45 1022.61 1022.80 1023.01 1023.24 1023.46 1023.66 1023.82 1023.94 1024.02
1017.05 1017.32 1017.62 1017.94 1018.27 1018.61 1018.95 1019.29 1019.63 1019.96 1020.26 1020.53 1020.76 1020.93 1021.03 1021.08 1021.06 1021.01 1020.93 1020.86 1020.82 1020.81 1020.87 1020.97 1021.12 1021.31 1021.50 1021.69 1021.86 1022.00 1022.11 1022.21 1022.32 1022.44 1022.58 1022.76 1022.96 1023.17 1023.37 1023.55 1023.69 1023.80 1023.87
1016.90 1017.23 1017.60 1018.01 1018.42 1018.83 1019.22 1019.60 1019.95 1020.28 1020.59 1020.87 1021.10 1021.28 1021.40 1021.46 1021.45 1021.38 1021.28 1021.16 1021.06 1021.00 1021.00 1021.06 1021.17 1021.33 1021.51 1021.69 1021.85 1021.99 1022.10 1022.20 1022.29 1022.39 1022.52 1022.68 1022.85 1023.03 1023.21 1023.37 1023.49 1023.57 1023.63
1016.76 1017.14 1017.57 1018.04 1018.52 1018.98 1019.41 1019.80 1020.15 1020.48 1020.77 1021.05 1021.29 1021.49 1021.64 1021.72 1021.73 1021.68 1021.56 1021.42 1021.29 1021.18 1021.13 1021.13 1021.21 1021.33 1021.49 1021.65 1021.81 1021.94 1022.05 1022.14 1022.22 1022.31 1022.42 1022.55 1022.69 1022.85 1022.99 1023.12 1023.22 1023.29 1023.34
1016.62 1017.02 1017.49 1018.01 1018.52 1019.01 1019.45 1019.84 1020.19 1020.50 1020.78 1021.06 1021.31 1021.54 1021.72 1021.85 1021.90 1021.87 1021.77 1021.63 1021.48 1021.33 1021.23 1021.19 1021.22 1021.30 1021.42 1021.56 1021.70 1021.83 1021.93 1022.02 1022.09 1022.18 1022.27 1022.38 1022.50 1022.62 1022.74 1022.84 1022.92 1022.97 1023.01
1016.47 1016.88 1017.36 1017.89 1018.42 1018.92 1019.36 1019.74 1020.07 1020.36 1020.64 1020.91 1021.18 1021.44 1021.67 1021.84 1021.94 1021.96 1021.89 1021.76 1021.60 1021.44 1021.30 1021.21 1021.19 1021.22 1021.31 1021.42 1021.53 1021.64 1021.74 1021.83 1021.91 1021.99 1022.07 1022.17 1022.27 1022.38 1022.47 1022.55 1022.61 1022.65 1022.68
1016.32 1016.72 1017.19 1017.71 1018.23 1018.72 1019.15 1019.52 1019.83 1020.12 1020.39 1020.67 1020.96 1021.25 1021.52 1021.74 1021.90 1021.96 1021.92 1021.82 1021.65 1021.47 1021.31 1021.18 1021.11 1021.09 1021.13 1021.20 1021.29 1021.39 1021.48 1021.57 1021.65 1021.74 1021.83 1021.92 1022.02 1022.12 1022.21 1022.27 1022.32 1022.34 1022.36
1016.18 1016.55 1017.00 1017.50 1018.00 1018.47 1018.89 1019.25 1019.56 1019.84 1020.12 1020.41 1020.72 1021.03 1021.33 1021.60 1021.79 1021.89 1021.89 1021.80 1021.64 1021.45 1021.26 1021.09 1020.97 1020.91 1020.90 1020.93 1020.99 1021.07 1021.16 1021.24 1021.33 1021.43 1021.53 1021.64 1021.75 1021.85 1021.94 1022.00 1022.04 1022.06 1022.06
1016.04 1016.40 1016.82 1017.30 1017.78 1018.24 1018.64 1019.00 1019.32 1019.60 1019.89 1020.18 1020.50 1020.83 1021.15 1021.43 1021.65 1021.77 1021.79 1021.72 1021.57 1021.37 1021.16 1020.96 1020.80 1020.69 1020.63 1020.62 1020.64 1020.70 1020.77 1020.86 1020.96 1021.07 1021.20 1021.32 1021.45 1021.56 1021.66 1021.72 1021.76 1021.77 1021.76
1015.92 1016.26 1016.67 1017.13 1017.60 1018.05 1018.46 1018.82 1019.14 1019.44 1019.72 1020.02 1020.34 1020.67 1020.99 1021.27 1021.49 1021.62 1021.65 1021.59 1021.45 1021.25 1021.02 1020.80 1020.60 1020.45 1020.35 1020.29 1020.28 1020.30 1020.36 1020.44 1020.54 1020.67 1020.81 1020.96 1021.11 1021.24 1021.35 1021.43 1021.46 1021.47 1021.45
1015.80 1016.15 1016.56 1017.00 1017.47 1017.92 1018.34 1018.71 1019.04 1019.34 1019.62 1019.91 1020.21 1020.52 1020.82 1021.09 1021.30 1021.43 1021.47 1021.41 1021.28 1021.09 1020.87 1020.63 1020.41 1020.23 1020.08 1019.98 1019.93 1019.91 1019.94 1020.01 1020.11 1020.24 1020.40 1020.57 1020.73 1020.88 1021.00 1021.08 1021.12 1021.12 1021.09
1015.68 1016.04 1016.46 1016.91 1017.38 1017.84 1018.26 1018.64 1018.97 1019.26 1019.54 1019.80 1020.08 1020.35 1020.61 1020.85 1021.04 1021.17 1021.22 1021.18 1021.08 1020.91 1020.70 1020.48 1020.25 1020.04 1019.87 1019.72 1019.63 1019.57 1019.56 1019.60 1019.69 1019.82 1019.97 1020.14 1020.32 1020.47 1020.60 1020.68 1020.72 1020.72 1020.68
1015.54 1015.93 1016.36 1016.82 1017.29 1017.75 1018.17 1018.54 1018.87 1019.14 1019.39 1019.63 1019.86 1020.09 1020.32 1020.52 1020.70 1020.83 1020.89 1020.89 1020.82 1020.70 1020.53 1020.34 1020.12 1019.91 1019.72 1019.54 1019.40 1019.31 1019.26 1019.26 1019.32 1019.42 1019.56 1019.72 1019.88 1020.03 1020.15 1020.23 1020.26 1020.25 1020.20
1015.39 1015.80 1016.24 1016.70 1017.16 1017.61 1018.02 1018.37 1018.67 1018.92 1019.14 1019.33 1019.52 1019.70 1019.89 1020.07 1020.24 1020.38 1020.48 1020.53 1020.52 1020.47 1020.36 1020.21 1020.04 1019.84 1019.64 1019.45 1019.28 1019.15 1019.06 1019.01 1019.03 1019.09 1019.20 1019.32 1019.46 1019.59 1019.68 1019.74 1019.76 1019.74 1019.68
1015.24 1015.65 1016.08 1016.52 1016.97 1017.39 1017.77 1018.10 1018.36 1018.57 1018.75 1018.89 1019.03 1019.18 1019.34 1019.50 1019.68 1019.84 1019.99 1020.10 1020.18 1020.20 1020.18 1020.10 1019.98 1019.83 1019.65 1019.46 1019.27 1019.11 1018.97 1018.89 1018.85 1018.87 1018.92 1019.00 1019.09 1019.18 1019.24 1019.27 1019.26 1019.21 1019.15
1015.10 1015.48 1015.89 1016.30 1016.71 1017.09 1017.43 1017.72 1017.94 1018.11 1018.24 1018.35 1018.45 1018.57 1018.71 1018.87 1019.06 1019.26 1019.46 1019.65 1019.81 1019.93 1019.99 1020.00 1019.96 1019.86 1019.72 1019.55 1019.36 1019.18 1019.02 1018.90 1018.81 1018.77 1018.77 1018.79 1018.82 1018.84 1018.85 1018.84 1018.79 1018.72 1018.64
1014.98 1015.32 1015.68 1016.04 1016.40 1016.74 1017.03 1017.28 1017.46 1017.59 1017.69 1017.77 1017.85 1017.95 1018.08 1018.25 1018.46 1018.71 1018.96 1019.22 1019.46 1019.67 1019.83 1019.93 1019.96 1019.93 1019.84 1019.71 1019.55 1019.38 1019.21 1019.05 1018.92 1018.83 1018.76 1018.71 1018.67 1018.62 1018.57 1018.49 1018.40 1018.30 1018.20
1014.88 1015.17 1015.48 1015.79 1016.10 1016.39 1016.64 1016.84 1017.00 1017.10 1017.18 1017.25 1017.32 1017.43 1017.57 1017.75 1017.99 1018.27 1018.57 1018.89 1019.20 1019.48 1019.72 1019.90 1020.01 1020.05 1020.03 1019.95 1019.83 1019.68 1019.51 1019.34 1019.18 1019.04 1018.90 1018.78 1018.66 1018.54 1018.40 1018.27 1018.12 1017.98 1017.84
1014.79 1015.04 1015.29 1015.56 1015.83 1016.08 1016.30 1016.48 1016.63 1016.73 1016.82 1016.89 1016.98 1017.10 1017.26 1017.47 1017.73 1018.03 1018.37 1018.72 1019.08 1019.41 1019.70 1019.95 1020.13 1020.24 1020.28 1020.26 1020.19 1020.07 1019.92 1019.75 1019.57 1019.38 1019.19 1018.99 1018.79 1018.59 1018.38 1018.16 1017.96 1017.76 1017.59
1014.70 1014.92 1015.15 1015.39 1015.64 1015.87 1016.08 1016.26 1016.41 1016.54 1016.65 1016.77 1016.89 1017.05 1017.24 1017.47 1017.75 1018.07 1018.42 1018.78 1019.15 1019.51 1019.83 1020.11 1020.34 1020.51 1020.61 1020.64 1020.62 1020.54 1020.42 1020.25 1020.06 1019.83 1019.59 1019.32 1019.05 1018.76 1018.47 1018.18 1017.91 1017.65 1017.43
1014.60 1014.82 1015.05 1015.30 1015.54 1015.78 1016.00 1016.20 1016.39 1016.56 1016.73 1016.90 1017.09 1017.29 1017.52 1017.79 1018.08 1018.41 1018.75 1019.11 1019.46 1019.81 1020.14 1020.43 1020.68 1020.88 1021.02 1021.10 1021.11 1021.07 1020.97 1020.81 1020.60 1020.35 1020.06 1019.73 1019.39 1019.02 1018.66 1018.29 1017.95 1017.64 1017.36
1014.48 1014.74 1015.01 1015.28 1015.55 1015.81 1016.07 1016.31 1016.55 1016.79 1017.03 1017.27 1017.53 1017.80 1018.09 1018.39 1018.71 1019.03 1019.36 1019.68 1020.01 1020.32 1020.62 1020.90 1021.14 1021.34 1021.50 1021.60 1021.65 1021.62 1021.54 1021.38 1021.16 1020.88 1020.54 1020.17 1019.76 1019.33 1018.89 1018.47 1018.06 1017.69 1017.35
1014.38 1014.71 1015.03 1015.35 1015.66 1015.96 1016.26 1016.55 1016.86 1017.17 1017.49 1017.82 1018.16 1018.51 1018.86 1019.20 1019.54 1019.86 1020.17 1020.46 1020.74 1021.01 1021.26 1021.50 1021.71 1021.90 1022.04 1022.14 1022.19 1022.17 1022.08 1021.91 1021.67 1021.36 1020.99 1020.57 1020.11 1019.63 1019.14 1018.66 1018.20 1017.77 1017.38
Thickness
5736 5735 5734 5734 5733 5732 5731 5730 5728 5728 5727 5726 5725 5724 5722 5721 5719 5718 5716 5715 5714 5712 5711 5710 5708 5707 5706 5705 5705 5704 5703 5702 5702 5701 5700 5699 5699 5698 5697 5697 5696 5695 5694
5735 5734 5733 5732 5731 5731 5730 5729 5728 5727 5726 5725 5724 5723 5722 5720 5719 5717 5716 5715 5713 5712 5710 5709 5708 5706 5706 5705 5704 5703 5702 5702 5701 5700 5699 5698 5698 5697 5696 5696 5695 5694 5693
5734 5733 5731 5731 5730 5729 5728 5727 5726 5725 5725 5724 5723 5722 5721 5719 5718 5717 5715 5714 5713 5711 5710 5709 5707 5706 5705 5705 5704 5703 5702 5701 5700 5699 5698 5698 5697 5696 5696 5695 5694 5693 5693
5733 5732 5730 5730 5729 5728 5727 5726 5725 5723 5723 5722 5721 5720 5720 5718 5717 5716 5715 5713 5712 5711 5710 5709 5708 5706 5705 5705 5704 5703 5702 5701 5700 5699 5698 5697 5697 5696 5695 5694 5694 5693 5692
5732 5731 5730 5729 5728 5727 5726 5725 5723 5722 5721 5720 5720 5719 5718 5718 5717 5716 5715 5714 5713 5712 5710 5709 5708 5707 5706 5705 5704 5703 5703 5701 5700 5699 5698 5697 5697 5696 5695 5694 5694 5693 5693
5730 5730 5729 5728 5727 5726 5724 5723 5721 5721 5720 5719 5719 5717 5716 5716 5716 5716 5715 5714 5713 5712 5711 5710 5709 5708 5707 5706 5705 5704 5703 5702 5701 5700 5699 5697 5697 5696 5695 5695 5694 5693 5693
5729 5729 5728 5727 5726 5725 5724 5723 5720 5719 5717 5717 5715 5713 5713 5715 5715 5716 5715 5714 5714 5713 5712 5711 5710 5709 5708 5707 5706 5705 5704 5703 5702 5701 5699 5698 5697 5696 5695 5695 5694 5693 5693
5728 5728 5728 5727 5726 5724 5722 5722 5720 5718 5716 5716 5714 5709 5707 5709 5713 5716 5715 5715 5715 5715 5714 5713 5712 5711 5710 5709 5707 5706 5705 5704 5703 5702 5701 5699 5698 5697 5696 5695 5694 5694 5693
5727 5728 5728 5727 5726 5725 5722 5721 5720 5718 5715 5714 5715 5711 5705 5703 5708 5713 5715 5716 5716 5716 5716 5715 5714 5713 5712 5710 5709 5708 5707 5705 5704 5703 5701 5700 5699 5698 5697 5696 5695 5694 5693
5727 5728 5727 5727 5726 5724 5723 5722 5721 5720 5717 5714 5713 5713 5713 5711 5707 5707 5712 5715 5716 5716 5717 5717 5716 5715 5714 5712 5712 5710 5709 5707 5706 5705 5703 5702 5700 5699 5698 5697 5696 5695 5694
5727 5727 5727 5726 5725 5724 5723 5722 5721 5720 5719 5716 5714 5713 5711 5710 5710 5707 5706 5710 5713 5717 5717 5717 5717 5717 5716 5715 5714 5713 5711 5709 5708 5706 5705 5703 5702 5700 5699 5698 5697 5695 5694
5725 5726 5726 5725 5724 5723 5722 5722 5721 5720 5719 5718 5716 5715 5713 5711 5709 5708 5706 5707 5709 5714 5717 5718 5718 5718 5717 5716 5715 5714 5713 5711 5709 5708 5706 5704 5703 5701 5700 5698 5697 5696 5694
5724 5725 5725 5724 5723 5722 5722 5721 5720 5719 5718 5717 5717 5716 5715 5714 5714 5711 5708 5706 5707 5710 5714 5717 5719 5718 5718 5717 5716 5715 5713 5712 5710 5709 5707 5705 5703 5702 5700 5698 5697 5696 5694
5726 5726 5725 5724 5723 5722 5721 5720 5719 5718 5718 5717 5716 5716 5715 5714 5714 5713 5711 5707 5704 5705 5709 5713 5717 5718 5718 5717 5717 5715 5713 5712 5711 5709 5707 5705 5704 5702 5700 5699 5697 5695 5694
5725 5725 5724 5723 5722 5721 5720 5719 5718 5717 5716 5716 5715 5714 5714 5713 5713 5712 5711 5710 5706 5701 5703 5709 5712 5716 5716 5716 5716 5714 5713 5712 5710 5708 5707 5705 5703 5701 5699 5698 5696 5695 5693
5724 5723 5722 5721 5720 5719 5718 5718 5716 5715 5714 5714 5713 5712 5711 5711 5711 5710 5709 5709 5707 5705 5702 5706 5709 5711 5713 5713 5713 5712 5711 5710 5708 5707 5705 5704 5702 5700 5698 5696 5695 5693 5692
5723 5721 5720 5719 5718 5717 5716 5715 5714 5713 5712 5712 5711 5710 5710 5709 5708 5708 5707 5706 5704 5703 5701 5703 5704 5707 5708 5709 5709 5708 5708 5706 5705 5704 5703 5701 5700 5698 5696 5695 5693 5691 5690
5721 5720 5718 5717 5716 5715 5714 5713 5712 5712 5710 5710 5709 5708 5707 5707 5705 5705 5703 5703 5702 5701 5699 5698 5700 5701 5702 5703 5703 5703 5703 5702 5701 5701 5699 5698 5696 5695 5693 5692 5690 5689 5687
5718 5718 5716 5715 5714 5713 5712 5711 5710 5709 5708 5708 5707 5705 5705 5704 5702 5701 5700 5699 5698 5698 5696 5695 5695 5696 5696 5697 5697 5697 5697 5696 5696 5695 5694 5693 5692 5690 5689 5687 5686 5685 5683
5716 5715 5714 5713 5712 5711 5710 5708 5707 5706 5705 5704 5703 5703 5702 5700 5699 5698 5697 5695 5694 5692 5691 5690 5689 5689 5689 5689 5689 5688 5688 5688 5688 5688 5688 5687 5685 5684 5683 5681 5680 5679 5678
5713 5712 5711 5710 5710 5708 5707 5706 5704 5702 5700 5699 5698 5698 5697 5696 5695 5694 5693 5691 5689 5687 5685 5684 5683 5682 5681 5681 5680 5680 5680 5680 5680 5679 5679 5679 5677 5676 5675 5674 5673 5672 5671
5708 5708 5707 5706 5705 5704 5703 5702 5700 5698 5696 5693 5692 5692 5691 5690 5690 5689 5688 5686 5685 5682 5680 5678 5676 5674 5674 5673 5672 5671 5670 5669 5669 5671 5668 5669 5668 5667 5667 5666 5665 5664 5663
5702 5701 5700 5700 5698 5697 5697 5696 5694 5692 5690 5688 5687 5685 5685 5684 5683 5682 5680 5679 5677 5675 5674 5672 5669 5668 5666 5666 5664 5662 5661 5659 5659 5659 5657 5659 5659 5657 5657 5656 5655 5654 5653
5695 5694 5692 5691 5690 5688 5689 5689 5687 5685 5682 5680 5679 5678 5677 5675 5674 5673 5671 5669 5667 5665 5664 5662 5661 5659 5658 5656 5655 5653 5651 5650 5649 5648 5646 5646 5648 5647 5647 5646 5644 5643 5642
5687 5685 5683 5682 5681 5679 5680 5680 5679 5677 5674 5671 5670 5669 5668 5666 5664 5664 5662 5659 5657 5654 5653 5651 5649 5647 5646 5644 5642 5641 5639 5637 5637 5636 5633 5631 5633 5633 5634 5634 5632 5630 5629
5677 5675 5673 5672 5670 5669 5669 5670 5669 5668 5664 5661 5659 5657 5656 5655 5653 5652 5650 5648 5644 5641 5639 5638 5636 5634 5632 5630 5628 5626 5624 5622 5620 5620 5620 5616 5617 5615 5617 5619 5617 5615 5614